Waarnemingen

Advertentie
Mijn weer
Hoorn-A, Nederland (6212): temperatuur & dauwpunt: 16.01.2017 13:00:00 - 22.01.2017 13:00:00 (CET)Hoorn-A, Nederland (6212): windsnelheid & windstoten: 16.01.2017 13:00:00 - 22.01.2017 13:00:00 (CET)Hoorn-A, Nederland (6212): windrichting: 16.01.2017 13:00:00 - 22.01.2017 13:00:00 (CET)Hoorn-A, Nederland (6212): luchtdruk: 16.01.2017 13:00:00 - 22.01.2017 13:00:00 (CET)Hoorn-A, Nederland (6212): zicht: 16.01.2017 13:00:00 - 22.01.2017 13:00:00 (CET)
Datum & Tijd tt [°C] td [°C] ff [km/u] ff [kn] fx [km/u] fx [kn] dd ppp [hPa] vv [km]
22.01.2017 13:00:00 5,0 1,0 5 3 - - - 1027,1 10
22.01.2017 12:00:00 4,9 0,8 4 2 7 4 - 1027,2 10
22.01.2017 11:00:00 4,8 0,7 4 2 7 4 - 1027,5 10
22.01.2017 10:00:00 4,6 0,5 2 1 7 4 - 1027,4 10
22.01.2017 09:00:00 4,3 -0,1 8 4 11 6 - 1026,9 10
22.01.2017 08:00:00 4,2 -0,3 9 5 14 8 - 1026,5 10
22.01.2017 07:00:00 4,0 -0,5 11 6 18 10 - 1026,6 10
22.01.2017 06:00:00 3,9 -0,3 15 8 18 10 - 1027,0 10
22.01.2017 05:00:00 3,5 0,2 16 9 18 10 Z 1026,8 10
22.01.2017 04:00:00 3,4 -0,6 11 6 14 8 Z 1027,0 18
22.01.2017 03:00:00 3,3 -0,6 11 6 18 10 Z 1027,3 16
22.01.2017 02:00:00 3,2 0,3 14 8 22 12 ZZO 1027,4 13
22.01.2017 01:00:00 3,3 0,1 21 11 25 14 ZZO 1027,5 10
22.01.2017 00:00:00 3,6 0,0 26 14 29 16 ZZO 1027,7 10
21.01.2017 23:00:00 3,8 0,4 25 14 29 16 ZO 1027,6 14
21.01.2017 22:00:00 3,9 0,8 25 14 32 18 ZO 1027,8 13
21.01.2017 21:00:00 3,8 0,8 34 18 36 19 - 1027,9 10
21.01.2017 20:00:00 4,1 1,2 29 16 36 19 - 1028,0 14
21.01.2017 19:00:00 4,0 1,3 29 16 32 18 - 1027,9 10
21.01.2017 18:00:00 3,7 1,3 26 14 29 16 - 1028,3 10
21.01.2017 17:00:00 3,6 1,3 26 14 25 14 - 1028,3 10
21.01.2017 16:00:00 3,6 1,1 22 12 25 14 - 1028,7 10
21.01.2017 15:00:00 3,7 0,8 24 13 25 14 - 1028,9 10
21.01.2017 14:00:00 3,6 0,5 29 16 29 16 - 1029,8 10
21.01.2017 13:00:00 3,7 1,0 31 17 32 18 - 1030,5 10
21.01.2017 12:00:00 3,8 0,9 31 17 32 18 - 1031,1 10
21.01.2017 11:00:00 3,9 1,2 31 17 32 18 - 1031,4 10
21.01.2017 10:00:00 3,3 0,7 34 18 36 19 - 1032,0 10
21.01.2017 09:00:00 3,8 1,5 25 14 32 18 - 1031,7 27
21.01.2017 08:00:00 4,3 1,5 24 13 29 16 - 1031,7 10
21.01.2017 07:00:00 4,4 1,8 22 12 29 16 - 1031,9 50
21.01.2017 06:00:00 4,4 1,4 26 14 29 16 - 1032,4 10
21.01.2017 05:00:00 4,7 2,8 24 13 29 16 - 1032,5 8
21.01.2017 04:00:00 4,6 3,7 18 10 18 10 - 1033,0 8
21.01.2017 03:00:00 4,9 3,2 18 10 22 12 - 1033,3 10
21.01.2017 02:00:00 5,4 2,9 16 9 18 10 - 1033,4 10
21.01.2017 01:00:00 5,2 3,2 18 10 18 10 - 1033,8 10
21.01.2017 00:00:00 5,3 2,7 18 10 18 10 - 1034,3 10
20.01.2017 23:00:00 5,5 2,8 13 7 14 8 - 1034,6 10
20.01.2017 22:00:00 5,3 2,7 13 7 14 8 - 1034,9 10
20.01.2017 21:00:00 5,2 2,5 16 9 18 10 - 1035,0 10
20.01.2017 20:00:00 5,0 2,3 16 9 18 10 - 1034,9 10
20.01.2017 19:00:00 4,9 2,0 21 11 22 12 - 1034,9 10
20.01.2017 18:00:00 4,8 1,5 21 11 25 14 - 1035,0 10
20.01.2017 17:00:00 4,9 1,3 18 10 22 12 - 1035,3 10
20.01.2017 16:00:00 5,0 1,0 18 10 18 10 - 1035,1 10
20.01.2017 15:00:00 4,7 -3,7 13 7 18 10 - 1035,2 10
20.01.2017 14:00:00 4,4 -6,4 15 8 14 8 - 1035,8 10
20.01.2017 13:00:00 4,5 -7,3 15 8 14 8 - 1036,0 10
20.01.2017 12:00:00 4,4 -6,1 13 7 14 8 - 1036,5 10
20.01.2017 11:00:00 4,8 -5,5 13 7 14 8 - 1036,7 10
20.01.2017 10:00:00 4,8 -6,3 13 7 14 8 - 1036,5 10
20.01.2017 09:00:00 4,9 -7,4 13 7 14 8 - 1036,5 10
20.01.2017 08:00:00 4,5 -4,9 13 7 14 8 - 1036,4 10
20.01.2017 07:00:00 4,6 -4,5 13 7 14 8 - 1036,3 10
20.01.2017 06:00:00 4,8 -5,4 13 7 11 6 - 1036,4 10
20.01.2017 05:00:00 4,9 -4,5 11 6 11 6 - 1036,7 10
20.01.2017 04:00:00 4,9 -3,4 9 5 11 6 - 1036,6 10
20.01.2017 03:00:00 4,7 -3,5 8 4 7 4 - 1036,8 10
20.01.2017 02:00:00 4,7 -5,3 5 3 7 4 - 1036,9 10
20.01.2017 01:00:00 4,6 -4,5 4 2 7 4 - 1037,2 10
20.01.2017 00:00:00 4,7 -5,2 8 4 7 4 ZO 1037,6 10
19.01.2017 23:00:00 4,7 -4,8 8 4 7 4 ZO 1037,6 10
19.01.2017 22:00:00 4,7 -4,6 11 6 11 6 ZZO 1037,9 10
19.01.2017 21:00:00 4,6 -3,9 13 7 14 8 ZZO 1037,8 10
19.01.2017 20:00:00 4,6 -2,7 8 4 7 4 ZO 1037,7 10
19.01.2017 19:00:00 4,7 -2,0 4 2 14 8 - 1037,6 10
19.01.2017 18:00:00 4,6 -1,6 4 2 7 4 - 1037,5 10
19.01.2017 17:00:00 4,7 -1,6 5 3 7 4 ZO 1037,5 10
19.01.2017 16:00:00 5,0 -0,8 4 2 7 4 ZO 1037,6 14
19.01.2017 15:00:00 5,0 -2,5 4 2 7 4 Z 1037,6 10
19.01.2017 14:00:00 4,8 -1,7 4 2 7 4 Z 1037,8 10
19.01.2017 13:00:00 4,5 -2,1 4 2 7 4 ZZW 1038,3 10
19.01.2017 12:00:00 4,3 -2,1 8 4 7 4 - 1038,7 10
19.01.2017 11:00:00 4,1 -3,5 5 3 11 6 - 1039,0 10
19.01.2017 10:00:00 3,8 -1,4 9 5 11 6 Z 1038,9 10
19.01.2017 09:00:00 4,0 -2,0 7 4 11 6 ZZO 1038,7 19
19.01.2017 08:00:00 4,1 -1,8 11 6 11 6 Z 1037,9 21
19.01.2017 07:00:00 4,1 -0,7 7 4 11 6 Z 1037,8 12
19.01.2017 06:00:00 4,0 -0,6 7 4 7 4 Z 1038,2 11
19.01.2017 05:00:00 3,8 -0,4 8 4 14 8 - 1038,4 9
19.01.2017 04:00:00 3,7 -0,8 7 4 11 6 Z 1038,4 12
19.01.2017 03:00:00 3,6 -1,1 7 4 11 6 Z 1038,5 12
19.01.2017 02:00:00 3,4 -1,6 4 2 11 6 Z 1038,6 13
19.01.2017 01:00:00 3,4 -1,2 11 6 11 6 Z 1038,7 10
19.01.2017 00:00:00 3,3 -1,7 11 6 14 8 Z 1038,8 10
18.01.2017 23:00:00 3,3 -0,2 9 5 11 6 Z 1038,9 9
18.01.2017 22:00:00 3,2 0,1 9 5 11 6 - 1038,9 8
18.01.2017 21:00:00 3,1 0,2 13 7 14 8 - 1039,1 8
18.01.2017 20:00:00 3,1 0,2 13 7 14 8 - 1039,0 10
18.01.2017 19:00:00 3,3 0,3 15 8 14 8 Z 1039,1 10
18.01.2017 18:00:00 3,8 -0,9 11 6 14 8 Z 1039,1 10
18.01.2017 17:00:00 3,8 -2,2 8 4 11 6 - 1039,1 10
18.01.2017 16:00:00 3,6 -1,6 9 5 11 6 - 1039,1 10
18.01.2017 15:00:00 3,2 -1,3 13 7 14 8 - 1039,4 10
18.01.2017 14:00:00 2,7 -1,1 16 9 22 12 - 1039,4 10
18.01.2017 13:00:00 2,7 -0,8 18 10 22 12 - 1039,8 10
18.01.2017 12:00:00 2,4 -0,5 21 11 22 12 - 1039,9 -
18.01.2017 11:00:00 2,0 -1,0 22 12 25 14 - 1040,0 -
18.01.2017 10:00:00 2,0 -0,8 18 10 22 12 Z 1039,8 -
18.01.2017 09:00:00 2,1 -2,3 15 8 22 12 ZZW 1039,5 -
18.01.2017 08:00:00 1,9 -1,2 24 13 25 14 Z 1039,0 -
18.01.2017 07:00:00 2,7 -1,7 24 13 25 14 Z 1038,6 -
18.01.2017 06:00:00 3,1 -3,7 18 10 18 10 Z 1038,7 -
18.01.2017 05:00:00 3,2 -4,5 15 8 22 12 ZZW 1039,0 -
18.01.2017 04:00:00 3,2 -3,7 16 9 18 10 Z 1039,1 -
18.01.2017 03:00:00 3,3 -3,7 16 9 18 10 Z 1039,5 -
18.01.2017 02:00:00 3,1 -3,5 16 9 18 10 Z 1039,3 -
18.01.2017 01:00:00 3,0 -3,0 21 11 25 14 Z 1039,3 -
18.01.2017 00:00:00 3,0 -3,2 22 12 25 14 Z 1039,1 -
17.01.2017 23:00:00 3,2 -3,0 22 12 25 14 Z 1039,2 -
17.01.2017 22:00:00 3,2 -3,3 18 10 22 12 ZZW 1039,2 -
17.01.2017 21:00:00 3,0 -2,2 16 9 22 12 Z 1038,9 -
17.01.2017 20:00:00 2,9 -2,1 21 11 22 12 - 1039,0 -
17.01.2017 19:00:00 2,6 -1,9 15 8 22 12 ZZW 1038,6 -
17.01.2017 18:00:00 2,3 -2,2 16 9 22 12 - 1038,3 -
17.01.2017 17:00:00 1,9 -1,6 18 10 22 12 Z 1038,0 -
17.01.2017 16:00:00 1,9 -1,2 16 9 22 12 Z 1038,2 -
17.01.2017 15:00:00 1,4 -1,3 18 10 22 12 Z 1038,2 -
17.01.2017 14:00:00 1,0 -1,6 18 10 22 12 Z 1038,2 -
17.01.2017 13:00:00 0,6 -1,7 21 11 25 14 Z 1038,1 -
17.01.2017 12:00:00 0,8 -1,6 16 9 18 10 Z 1038,4 -
17.01.2017 11:00:00 1,0 -0,9 13 7 18 10 Z 1038,0 -
17.01.2017 10:00:00 0,7 -1,2 18 10 18 10 ZZO 1037,4 -
17.01.2017 09:00:00 0,6 -1,4 18 10 22 12 ZZO 1036,8 -
17.01.2017 08:00:00 1,0 -1,5 16 9 22 12 ZZO 1036,3 -
17.01.2017 07:00:00 1,0 -2,1 15 8 - - ZZO 1036,0 -
17.01.2017 06:00:00 0,9 -2,5 16 9 18 10 ZZO 1035,6 -
17.01.2017 05:00:00 1,0 -1,4 13 7 18 10 ZZO 1035,5 -
17.01.2017 04:00:00 1,3 -2,2 15 8 - - ZO 1035,2 -
17.01.2017 03:00:00 1,4 -2,7 15 8 18 10 ZO 1034,8 -
17.01.2017 02:00:00 1,2 -3,0 18 10 22 12 OZO 1034,4 -
17.01.2017 01:00:00 0,5 -2,1 15 8 18 10 ZO 1034,2 -
17.01.2017 00:00:00 0,2 -2,0 15 8 18 10 OZO 1034,2 -
16.01.2017 23:00:00 0,0 -1,8 18 10 18 10 OZO 1033,8 -
16.01.2017 22:00:00 0,3 -1,4 18 10 22 12 - 1033,3 -
16.01.2017 21:00:00 0,8 -0,9 16 9 22 12 - 1032,5 -
16.01.2017 20:00:00 1,8 -1,9 18 10 22 12 - 1031,7 -
16.01.2017 19:00:00 2,1 -2,5 18 10 22 12 - 1031,1 -
16.01.2017 18:00:00 2,3 -3,1 16 9 18 10 - 1030,6 -
16.01.2017 17:00:00 2,7 -2,7 16 9 18 10 - 1030,0 -
16.01.2017 16:00:00 2,9 -2,7 16 9 18 10 - 1029,3 -
16.01.2017 15:00:00 3,1 -2,0 13 7 18 10 - 1029,1 -
16.01.2017 14:00:00 3,3 -1,8 15 8 18 10 - 1028,7 -
16.01.2017 13:00:00 3,3 -1,8 16 9 18 10 OZO 1028,6 -

tt = temperatuur
td = dauwpunt
ff = windsnelheid
fx = windstoten
dd = windrichting
ppp = luchtdruk
vv = zicht

Weerstations in de omgeving